UPS1124 KSDF-KALB

Flight info

Callsign UPS1124
Flight time 1h 34m
Altitude 37000
Route EEVAA1 SHIPR PSB HNK
Aircraft B752/M-SDE3FGHIM3RWXY/LB1

Departure

Time 2026-04-26 21:40
Airport Louisville Muhammad Ali International Airport (KSDF)

Arrival

Time 2026-04-26 23:14
Airport Albany International Airport (KALB)
Time Latitude Longitude Altitude Speed Heading
2026-04-26 21:09 38.16692 -85.73663 470 ft 0 kts 200°
2026-04-26 21:12 38.16446 -85.73767 466 ft 0 kts 333°
2026-04-26 21:17 38.16445 -85.73767 466 ft 0 kts 333°
2026-04-26 21:32 38.16449 -85.73769 466 ft 1 kts 333°
2026-04-26 21:32 38.16464 -85.73781 466 ft 2 kts 322°
2026-04-26 21:33 38.16481 -85.73802 466 ft 4 kts 312°
2026-04-26 21:33 38.16504 -85.73837 467 ft 6 kts 309°
2026-04-26 21:33 38.16539 -85.73892 467 ft 8 kts 304°
2026-04-26 21:33 38.16572 -85.73947 467 ft 3 kts 340°
2026-04-26 21:34 38.16629 -85.73952 467 ft 12 kts 358°
2026-04-26 21:34 38.16711 -85.73956 468 ft 9 kts 350°
2026-04-26 21:34 38.16769 -85.73975 469 ft 7 kts 345°
2026-04-26 21:34 38.16817 -85.73993 470 ft 9 kts 340°
2026-04-26 21:35 38.16934 -85.74040 472 ft 25 kts 342°
2026-04-26 21:35 38.17160 -85.74113 476 ft 38 kts 346°
2026-04-26 21:35 38.17418 -85.74199 480 ft 37 kts 345°
2026-04-26 21:35 38.17659 -85.74277 483 ft 32 kts 345°
2026-04-26 21:36 38.17748 -85.74247 483 ft 11 kts 92°
2026-04-26 21:36 38.17725 -85.74142 483 ft 16 kts 110°
2026-04-26 21:36 38.17683 -85.74001 483 ft 17 kts 110°
2026-04-26 21:36 38.17641 -85.73863 482 ft 17 kts 112°
2026-04-26 21:37 38.17576 -85.73653 481 ft 34 kts 110°
2026-04-26 21:37 38.17471 -85.73298 480 ft 48 kts 109°
2026-04-26 21:37 38.17359 -85.72929 480 ft 32 kts 111°
2026-04-26 21:37 38.17201 -85.72774 480 ft 29 kts 163°
2026-04-26 21:38 38.17006 -85.72706 477 ft 29 kts 162°
2026-04-26 21:38 38.16810 -85.72639 476 ft 28 kts 163°
2026-04-26 21:38 38.16619 -85.72573 473 ft 28 kts 164°
2026-04-26 21:38 38.16462 -85.72498 472 ft 16 kts 129°
2026-04-26 21:39 38.16479 -85.72381 473 ft 13 kts 25°
2026-04-26 21:39 38.16560 -85.72393 473 ft 5 kts 346°
2026-04-26 21:39 38.16576 -85.72398 473 ft 11 kts 345°
2026-04-26 21:39 38.16742 -85.72456 475 ft 53 kts 346°
2026-04-26 21:40 38.17332 -85.72657 480 ft 119 kts 345°
2026-04-26 21:40 38.18320 -85.72998 533 ft 170 kts 347°
2026-04-26 21:40 38.19532 -85.73408 955 ft 195 kts 347°
2026-04-26 21:40 38.20974 -85.73898 1373 ft 231 kts 347°
2026-04-26 21:41 38.22604 -85.74453 1954 ft 252 kts 347°
2026-04-26 21:41 38.24371 -85.74847 2484 ft 263 kts
2026-04-26 21:41 38.26069 -85.74159 3332 ft 258 kts 36°
2026-04-26 21:41 38.27305 -85.72537 4028 ft 262 kts 57°
2026-04-26 21:42 38.28327 -85.70622 4827 ft 265 kts 57°
2026-04-26 21:42 38.29308 -85.68626 5600 ft 267 kts 69°
2026-04-26 21:42 38.29594 -85.66336 6348 ft 267 kts 98°
2026-04-26 21:42 38.28954 -85.64162 7157 ft 267 kts 126°
2026-04-26 21:43 38.27647 -85.62492 7913 ft 270 kts 138°
2026-04-26 21:43 38.26242 -85.60944 8721 ft 272 kts 138°
2026-04-26 21:43 38.24794 -85.59373 9537 ft 273 kts 139°
2026-04-26 21:43 38.23342 -85.57825 10282 ft 276 kts 139°
2026-04-26 21:44 38.21824 -85.56216 10616 ft 296 kts 140°
2026-04-26 21:44 38.20209 -85.54517 10923 ft 315 kts 140°
2026-04-26 21:44 38.18446 -85.52669 11237 ft 334 kts 140°
2026-04-26 21:44 38.16607 -85.50745 11504 ft 354 kts 140°
2026-04-26 21:45 38.14683 -85.48737 12125 ft 362 kts 140°
2026-04-26 21:45 38.12751 -85.46722 12854 ft 366 kts 140°
2026-04-26 21:45 38.10773 -85.44662 13596 ft 369 kts 140°
2026-04-26 21:45 38.08777 -85.42585 14187 ft 375 kts 140°
2026-04-26 21:46 38.06747 -85.40474 14751 ft 382 kts 140°
2026-04-26 21:46 38.04678 -85.38324 15323 ft 388 kts 140°
2026-04-26 21:46 38.02560 -85.36124 15835 ft 395 kts 140°
2026-04-26 21:46 38.00431 -85.33915 16422 ft 400 kts 140°
2026-04-26 21:47 37.98336 -85.31519 16894 ft 406 kts 132°
2026-04-26 21:47 37.96615 -85.28681 17395 ft 411 kts 121°
2026-04-26 21:47 37.95316 -85.25434 17885 ft 416 kts 110°
2026-04-26 21:47 37.94504 -85.21934 18466 ft 418 kts 101°
2026-04-26 21:48 37.93901 -85.18355 18977 ft 422 kts 101°
2026-04-26 21:48 37.93281 -85.14723 19520 ft 426 kts 101°
2026-04-26 21:48 37.92656 -85.11036 20032 ft 430 kts 101°
2026-04-26 21:48 37.92071 -85.07316 20559 ft 433 kts 96°
2026-04-26 21:49 37.91909 -85.03516 21099 ft 434 kts 86°
2026-04-26 21:49 37.92175 -84.99737 21613 ft 437 kts 82°
2026-04-26 21:49 37.92493 -84.95876 22141 ft 440 kts 82°
2026-04-26 21:49 37.92822 -84.92016 22664 ft 443 kts 81°
2026-04-26 21:50 37.93155 -84.88149 23112 ft 447 kts 81°
2026-04-26 21:50 37.93498 -84.84203 23601 ft 451 kts 81°
2026-04-26 21:50 37.93842 -84.80260 24066 ft 454 kts 81°
2026-04-26 21:50 37.94189 -84.76276 24544 ft 457 kts 81°
2026-04-26 21:51 37.94534 -84.72308 24944 ft 461 kts 81°
2026-04-26 21:51 37.94884 -84.68265 25373 ft 464 kts 81°
2026-04-26 21:51 37.95235 -84.64200 25790 ft 467 kts 80°
2026-04-26 21:51 37.95588 -84.60102 26211 ft 470 kts 80°
2026-04-26 21:52 37.95946 -84.55936 26551 ft 474 kts 80°
2026-04-26 21:52 37.96362 -84.51827 26944 ft 474 kts 75°
2026-04-26 21:52 37.97232 -84.47793 27335 ft 471 kts 65°
2026-04-26 21:52 37.98593 -84.44022 27665 ft 469 kts 56°
2026-04-26 21:53 38.00267 -84.40540 28079 ft 469 kts 54°
2026-04-26 21:53 38.02000 -84.37003 28410 ft 472 kts 53°
2026-04-26 21:53 38.03739 -84.33482 28805 ft 474 kts 54°
2026-04-26 21:53 38.05487 -84.29959 29161 ft 476 kts 53°
2026-04-26 21:54 38.07255 -84.26405 29493 ft 478 kts 53°
2026-04-26 21:54 38.09047 -84.22804 29907 ft 479 kts 53°
2026-04-26 21:54 38.10813 -84.19257 30292 ft 479 kts 53°
2026-04-26 21:54 38.12584 -84.15696 30723 ft 479 kts 53°
2026-04-26 21:55 38.14355 -84.12136 31180 ft 477 kts 53°
2026-04-26 21:55 38.16151 -84.08524 31497 ft 477 kts 53°
2026-04-26 21:55 38.17901 -84.04998 31895 ft 477 kts 52°
2026-04-26 21:55 38.19694 -84.01385 32247 ft 476 kts 52°
2026-04-26 21:56 38.21452 -83.97837 32600 ft 476 kts 52°
2026-04-26 21:56 38.23210 -83.94287 32879 ft 477 kts 52°
2026-04-26 21:56 38.24987 -83.90694 33251 ft 475 kts 52°
2026-04-26 21:56 38.26751 -83.87122 33561 ft 475 kts 52°
2026-04-26 21:57 38.28510 -83.83558 33840 ft 475 kts 52°
2026-04-26 21:57 38.29860 -83.80821 34137 ft 474 kts 52°
2026-04-26 21:57 38.31870 -83.76739 34411 ft 474 kts 52°
2026-04-26 21:58 38.33625 -83.73172 34707 ft 474 kts 52°
2026-04-26 21:58 38.35372 -83.69616 35001 ft 472 kts 52°
2026-04-26 21:58 38.37111 -83.66074 35261 ft 472 kts 52°
2026-04-26 21:58 38.38847 -83.62536 35433 ft 473 kts 52°
2026-04-26 21:59 38.40578 -83.58999 35743 ft 471 kts 52°
2026-04-26 21:59 38.42310 -83.55461 35924 ft 472 kts 52°
2026-04-26 21:59 38.44044 -83.51910 36154 ft 471 kts 52°
2026-04-26 21:59 38.45782 -83.48352 36290 ft 472 kts 52°
2026-04-26 22:00 38.47508 -83.44811 36589 ft 469 kts 52°
2026-04-26 22:00 38.49236 -83.41267 36654 ft 471 kts 52°
2026-04-26 22:00 38.50973 -83.37695 36910 ft 469 kts 52°
2026-04-26 22:00 38.52693 -83.34157 36999 ft 469 kts 52°
2026-04-26 22:01 38.56122 -83.27090 37030 ft 469 kts 52°
2026-04-26 22:01 38.59543 -83.20025 37042 ft 469 kts 52°
2026-04-26 22:02 38.61247 -83.16499 36694 ft 468 kts 52°
2026-04-26 22:02 38.62934 -83.13000 37082 ft 458 kts 52°
2026-04-26 22:02 38.66293 -83.06033 37037 ft 461 kts 52°
2026-04-26 22:03 38.69660 -82.99040 37038 ft 463 kts 52°
2026-04-26 22:03 38.73039 -82.92001 37053 ft 465 kts 52°
2026-04-26 22:04 38.76418 -82.84945 37050 ft 466 kts 53°
2026-04-26 22:04 38.79798 -82.77873 37057 ft 467 kts 53°
2026-04-26 22:05 38.83195 -82.70747 37056 ft 467 kts 53°
2026-04-26 22:05 38.86563 -82.63669 37057 ft 467 kts 53°
2026-04-26 22:06 38.89953 -82.56527 37049 ft 468 kts 53°
2026-04-26 22:06 38.93314 -82.49429 37048 ft 468 kts 53°
2026-04-26 22:07 38.96689 -82.42288 37048 ft 467 kts 53°
2026-04-26 22:07 39.00057 -82.35145 37042 ft 468 kts 53°
2026-04-26 22:08 39.03420 -82.27996 37059 ft 469 kts 54°
2026-04-26 22:08 39.06795 -82.20804 37050 ft 468 kts 54°
2026-04-26 22:09 39.10155 -82.13631 37053 ft 469 kts 54°
2026-04-26 22:09 39.13540 -82.06387 37073 ft 470 kts 54°
2026-04-26 22:10 39.16895 -81.99191 37066 ft 469 kts 54°
2026-04-26 22:10 39.20244 -81.91991 37061 ft 468 kts 54°
2026-04-26 22:11 39.23583 -81.84798 37057 ft 469 kts 54°
2026-04-26 22:11 39.26947 -81.77532 37062 ft 469 kts 54°
2026-04-26 22:12 39.30276 -81.70325 37070 ft 470 kts 54°
2026-04-26 22:12 39.33633 -81.63041 37069 ft 469 kts 54°
2026-04-26 22:13 39.36965 -81.55795 37075 ft 469 kts 54°
2026-04-26 22:13 39.40271 -81.48591 37077 ft 469 kts 54°
2026-04-26 22:14 39.43609 -81.41299 37083 ft 470 kts 55°
2026-04-26 22:14 39.46914 -81.34060 37080 ft 470 kts 56°
2026-04-26 22:15 39.50230 -81.26781 37075 ft 470 kts 56°
2026-04-26 22:15 39.53550 -81.19481 37074 ft 469 kts 56°
2026-04-26 22:16 39.56837 -81.12232 37070 ft 469 kts 56°
2026-04-26 22:16 39.60131 -81.04950 37072 ft 469 kts 56°
2026-04-26 22:17 39.63430 -80.97643 37075 ft 470 kts 56°
2026-04-26 22:17 39.66725 -80.90327 37079 ft 470 kts 56°
2026-04-26 22:18 39.70010 -80.83015 37074 ft 470 kts 56°
2026-04-26 22:18 39.73284 -80.75710 37075 ft 469 kts 56°
2026-04-26 22:19 39.76580 -80.68340 37089 ft 470 kts 56°
2026-04-26 22:19 39.79847 -80.61017 37093 ft 468 kts 56°
2026-04-26 22:20 39.83123 -80.53657 37093 ft 469 kts 56°
2026-04-26 22:20 39.86382 -80.46319 37095 ft 470 kts 56°
2026-04-26 22:21 39.89638 -80.38967 37098 ft 469 kts 56°
2026-04-26 22:21 39.92898 -80.31589 37096 ft 469 kts 56°
2026-04-26 22:22 39.96134 -80.24249 37102 ft 469 kts 56°
2026-04-26 22:22 39.99374 -80.16882 37103 ft 469 kts 57°
2026-04-26 22:23 40.02622 -80.09481 37104 ft 469 kts 56°
2026-04-26 22:23 40.05851 -80.02103 37108 ft 469 kts 56°
2026-04-26 22:24 40.09093 -79.94679 37107 ft 469 kts 56°
2026-04-26 22:24 40.12297 -79.87324 37115 ft 469 kts 56°
2026-04-26 22:25 40.15522 -79.79903 37121 ft 470 kts 57°
2026-04-26 22:25 40.18750 -79.72457 37124 ft 470 kts 57°
2026-04-26 22:26 40.21954 -79.65048 37129 ft 470 kts 57°
2026-04-26 22:26 40.25164 -79.57606 37129 ft 470 kts 56°
2026-04-26 22:27 40.28381 -79.50131 37133 ft 470 kts 57°
2026-04-26 22:27 40.31601 -79.42630 37142 ft 472 kts 56°
2026-04-26 22:28 40.34788 -79.35188 37131 ft 471 kts 57°
2026-04-26 22:28 40.37991 -79.27692 37132 ft 472 kts 57°
2026-04-26 22:29 40.41196 -79.20171 37133 ft 472 kts 57°
2026-04-26 22:29 40.44379 -79.12685 37135 ft 473 kts 57°
2026-04-26 22:30 40.47579 -79.05137 37130 ft 472 kts 57°
2026-04-26 22:30 40.50763 -78.97611 37132 ft 472 kts 57°
2026-04-26 22:31 40.53939 -78.90085 37132 ft 473 kts 57°
2026-04-26 22:31 40.57124 -78.82516 37135 ft 473 kts 57°
2026-04-26 22:32 40.60312 -78.74925 37126 ft 474 kts 57°
2026-04-26 22:32 40.63464 -78.67396 37116 ft 473 kts 57°
2026-04-26 22:33 40.68233 -78.55974 37126 ft 474 kts 57°
2026-04-26 22:34 40.71383 -78.48405 37124 ft 474 kts 57°
2026-04-26 22:34 40.74549 -78.40778 37118 ft 475 kts 57°
2026-04-26 22:35 40.77724 -78.33111 37115 ft 475 kts 57°
2026-04-26 22:35 40.80885 -78.25458 37116 ft 475 kts 58°
2026-04-26 22:36 40.84031 -78.17820 37117 ft 475 kts 58°
2026-04-26 22:36 40.87169 -78.10184 37133 ft 476 kts 58°
2026-04-26 22:37 40.90321 -78.02493 37141 ft 476 kts 58°
2026-04-26 22:37 40.93594 -77.94882 37143 ft 475 kts 55°
2026-04-26 22:38 40.96943 -77.87402 37137 ft 475 kts 55°
2026-04-26 22:38 41.00305 -77.79858 37147 ft 475 kts 55°
2026-04-26 22:39 41.03650 -77.72333 37147 ft 476 kts 55°
2026-04-26 22:39 41.06987 -77.64804 37146 ft 476 kts 55°
2026-04-26 22:40 41.10333 -77.57240 37139 ft 476 kts 55°
2026-04-26 22:40 41.13662 -77.49693 37147 ft 476 kts 55°
2026-04-26 22:41 41.17004 -77.42098 37142 ft 477 kts 55°
2026-04-26 22:41 41.20351 -77.34471 37140 ft 476 kts 56°
2026-04-26 22:42 41.23673 -77.26885 37128 ft 478 kts 56°
2026-04-26 22:42 41.27010 -77.19244 37132 ft 478 kts 56°
2026-04-26 22:43 41.30333 -77.11616 37153 ft 479 kts 56°
2026-04-26 22:43 41.33664 -77.03950 37150 ft 479 kts 56°
2026-04-26 22:44 41.36990 -76.96275 37153 ft 479 kts 55°
2026-04-26 22:44 41.40288 -76.88644 37151 ft 477 kts 56°
2026-04-26 22:45 41.43586 -76.80995 37146 ft 478 kts 56°
2026-04-26 22:45 41.46891 -76.73309 37146 ft 478 kts 55°
2026-04-26 22:46 41.50172 -76.65658 37130 ft 477 kts 55°
2026-04-26 22:46 41.53463 -76.57969 37132 ft 478 kts 55°
2026-04-26 22:47 41.56730 -76.50313 37136 ft 477 kts 55°
2026-04-26 22:47 41.60019 -76.42588 37132 ft 477 kts 55°
2026-04-26 22:48 41.63255 -76.34967 37131 ft 478 kts 56°
2026-04-26 22:48 41.66538 -76.27214 37103 ft 475 kts 56°
2026-04-26 22:49 41.69790 -76.19516 37106 ft 476 kts 56°
2026-04-26 22:49 41.73017 -76.11855 37108 ft 476 kts 56°
2026-04-26 22:50 41.76214 -76.04237 36773 ft 460 kts 56°
2026-04-26 22:50 41.77781 -76.00501 36189 ft 460 kts 55°
2026-04-26 22:50 41.79332 -75.96797 35651 ft 459 kts 55°
2026-04-26 22:50 41.80880 -75.93098 35101 ft 459 kts 54°
2026-04-26 22:51 41.82437 -75.89372 34456 ft 459 kts 54°
2026-04-26 22:51 41.84005 -75.85619 33728 ft 458 kts 54°
2026-04-26 22:51 41.85534 -75.81948 33019 ft 458 kts 54°
2026-04-26 22:51 41.87096 -75.78198 32299 ft 457 kts 54°
2026-04-26 22:52 41.88627 -75.74515 31596 ft 456 kts 54°
2026-04-26 22:52 41.90159 -75.70824 30894 ft 453 kts 54°
2026-04-26 22:52 41.91688 -75.67131 30163 ft 449 kts 53°
2026-04-26 22:52 41.93187 -75.63517 29474 ft 450 kts 54°
2026-04-26 22:53 41.94705 -75.59852 28824 ft 450 kts 54°
2026-04-26 22:53 41.96209 -75.56207 28211 ft 445 kts 53°
2026-04-26 22:53 41.97712 -75.52564 27628 ft 439 kts 53°
2026-04-26 22:53 41.99173 -75.49017 27087 ft 434 kts 54°
2026-04-26 22:54 42.00622 -75.45494 26567 ft 430 kts 53°
2026-04-26 22:54 42.02061 -75.41996 26066 ft 427 kts 53°
2026-04-26 22:54 42.03484 -75.38532 25575 ft 424 kts 53°
2026-04-26 22:54 42.04901 -75.35078 25084 ft 422 kts 53°
2026-04-26 22:55 42.06310 -75.31649 24610 ft 416 kts 53°
2026-04-26 22:55 42.07823 -75.28345 24130 ft 410 kts 51°
2026-04-26 22:55 42.09332 -75.25111 23597 ft 409 kts 51°
2026-04-26 22:55 42.10818 -75.21913 23085 ft 405 kts 51°
2026-04-26 22:56 42.12310 -75.18691 22587 ft 401 kts 51°
2026-04-26 22:56 42.13768 -75.15540 22110 ft 397 kts 51°
2026-04-26 22:56 42.15220 -75.12398 21631 ft 394 kts 51°
2026-04-26 22:56 42.16647 -75.09308 21164 ft 392 kts 51°
2026-04-26 22:57 42.18089 -75.06181 20695 ft 391 kts 51°
2026-04-26 22:57 42.19519 -75.03077 20233 ft 389 kts 51°
2026-04-26 22:57 42.20924 -75.00022 19775 ft 386 kts 52°
2026-04-26 22:57 42.22340 -74.96941 19319 ft 383 kts 52°
2026-04-26 22:58 42.23741 -74.93889 18867 ft 381 kts 52°
2026-04-26 22:58 42.25119 -74.90883 18421 ft 379 kts 52°
2026-04-26 22:58 42.26507 -74.87854 17983 ft 377 kts 52°
2026-04-26 22:58 42.27867 -74.84885 17545 ft 375 kts 52°
2026-04-26 22:59 42.29251 -74.81858 17100 ft 374 kts 52°
2026-04-26 22:59 42.30611 -74.78880 16662 ft 372 kts 52°
2026-04-26 22:59 42.31952 -74.75938 16227 ft 370 kts 53°
2026-04-26 22:59 42.33305 -74.72971 15789 ft 368 kts 53°
2026-04-26 23:00 42.34634 -74.70054 15367 ft 367 kts 53°
2026-04-26 23:00 42.35973 -74.67110 14933 ft 365 kts 53°
2026-04-26 23:00 42.37286 -74.64222 14504 ft 363 kts 53°
2026-04-26 23:00 42.38612 -74.61301 14071 ft 362 kts 54°
2026-04-26 23:01 42.39922 -74.58415 13644 ft 360 kts 54°
2026-04-26 23:01 42.41224 -74.55541 13217 ft 357 kts 54°
2026-04-26 23:01 42.42513 -74.52692 12791 ft 353 kts 54°
2026-04-26 23:01 42.43773 -74.49907 12377 ft 350 kts 55°
2026-04-26 23:02 42.45037 -74.47111 11939 ft 347 kts 55°
2026-04-26 23:02 42.46292 -74.44331 11501 ft 344 kts 55°
2026-04-26 23:02 42.47537 -74.41569 11072 ft 341 kts 55°
2026-04-26 23:02 42.48764 -74.38846 10649 ft 337 kts 56°
2026-04-26 23:03 42.49977 -74.36151 10249 ft 334 kts 56°
2026-04-26 23:03 42.51157 -74.33522 10208 ft 316 kts 57°
2026-04-26 23:03 42.52011 -74.30891 9874 ft 299 kts 74°
2026-04-26 23:03 42.52166 -74.28191 9459 ft 286 kts 92°
2026-04-26 23:04 42.52047 -74.25583 9089 ft 270 kts 87°
2026-04-26 23:04 42.52087 -74.23058 8448 ft 266 kts 84°
2026-04-26 23:04 42.52196 -74.20600 7853 ft 261 kts 83°
2026-04-26 23:04 42.52346 -74.18156 7225 ft 258 kts 82°
2026-04-26 23:05 42.52514 -74.15790 6638 ft 254 kts 82°
2026-04-26 23:05 42.52696 -74.13433 6006 ft 252 kts 82°
2026-04-26 23:05 42.52884 -74.11092 5385 ft 249 kts 82°
2026-04-26 23:05 42.53074 -74.08775 4750 ft 248 kts 81°
2026-04-26 23:06 42.53267 -74.06466 4138 ft 245 kts 81°
2026-04-26 23:06 42.53454 -74.04218 3902 ft 236 kts 81°
2026-04-26 23:06 42.53644 -74.01977 3825 ft 247 kts 81°
2026-04-26 23:06 42.53838 -73.99664 3599 ft 243 kts 81°
2026-04-26 23:07 42.54022 -73.97462 3601 ft 229 kts 81°
2026-04-26 23:07 42.54196 -73.95378 3606 ft 215 kts 81°
2026-04-26 23:07 42.54359 -73.93420 3605 ft 202 kts 81°
2026-04-26 23:07 42.54511 -73.91595 3598 ft 189 kts 81°
2026-04-26 23:08 42.54653 -73.89885 3601 ft 177 kts 81°
2026-04-26 23:08 42.54790 -73.88257 3620 ft 171 kts 81°
2026-04-26 23:08 42.54924 -73.86656 3643 ft 171 kts 81°
2026-04-26 23:08 42.55059 -73.85033 3613 ft 172 kts 81°
2026-04-26 23:09 42.55193 -73.83433 3613 ft 171 kts 81°
2026-04-26 23:09 42.55330 -73.81814 3624 ft 173 kts 78°
2026-04-26 23:09 42.55851 -73.80410 3636 ft 168 kts 44°
2026-04-26 23:09 42.56886 -73.79639 3478 ft 176 kts
2026-04-26 23:10 42.58117 -73.79713 3293 ft 178 kts 357°
2026-04-26 23:10 42.59347 -73.79834 3065 ft 177 kts
2026-04-26 23:10 42.60568 -73.79873 2836 ft 176 kts
2026-04-26 23:10 42.61806 -73.79916 2601 ft 176 kts
2026-04-26 23:11 42.63014 -73.79974 2380 ft 171 kts
2026-04-26 23:11 42.64153 -73.80027 2174 ft 155 kts
2026-04-26 23:11 42.65170 -73.80074 1991 ft 137 kts
2026-04-26 23:11 42.66077 -73.80112 1765 ft 124 kts
2026-04-26 23:12 42.66934 -73.80146 1608 ft 125 kts
2026-04-26 23:12 42.67823 -73.80180 1458 ft 131 kts
2026-04-26 23:12 42.68738 -73.80218 1281 ft 130 kts
2026-04-26 23:12 42.69648 -73.80255 1102 ft 130 kts
2026-04-26 23:13 42.70547 -73.80286 942 ft 130 kts 358°
2026-04-26 23:13 42.71453 -73.80339 811 ft 131 kts
2026-04-26 23:13 42.72371 -73.80372 611 ft 133 kts 360°
2026-04-26 23:13 42.73307 -73.80413 398 ft 131 kts 359°
2026-04-26 23:14 42.74217 -73.80448 287 ft 130 kts 359°
2026-04-26 23:14 42.74876 -73.80475 281 ft 66 kts 359°
2026-04-26 23:14 42.75273 -73.80493 281 ft 51 kts 358°
2026-04-26 23:14 42.75558 -73.80503 276 ft 35 kts 359°
2026-04-26 23:15 42.75677 -73.80453 274 ft 15 kts 66°
2026-04-26 23:15 42.75710 -73.80315 273 ft 14 kts 80°
2026-04-26 23:15 42.75714 -73.80187 273 ft 12 kts 89°
2026-04-26 23:15 42.75714 -73.80154 273 ft 1 kts 89°
2026-04-26 23:16 42.75714 -73.80151 273 ft 0 kts 89°